Flag for USA

Past Weather in 41°56'55"N, 87°51'32"W, USA — Yesterday and Last 2 Weeks

Now
76 °F

Scattered clouds.


Feels Like: 77 °F
Forecast: 87 / 78 °F
Wind: 5 mph from Southwest

Location: Chicago Midway Airport

Current Time: Jul 9, 2020 at 7:16:19 am

Latest Report: Jul 9, 2020 at 5:53 am


Visibility: 9 mi

Pressure: 29.87 "Hg

Humidity: 77%

Dew Point: 68 °F

Location of 41°56'55"N, 87°51'32"WLocation

Past Weather in 41°56'55"N, 87°51'32"W — Graph

°F

41°56'55"N, 87°51'32"W Temperature Yesterday

Maximum temperature yesterday: 91 °F (at 11:53 am)
Minimum temperature yesterday: 76 °F (at 12:53 am)
Average temperature yesterday: 83 °F

High & Low Weather Summary for the Past Weeks

 TemperatureHumidityPressure
High94 °F (Jul 6, 2:53 pm)100% (Jun 26, 8:00 pm)30.04 "Hg (Jun 26, 8:00 pm)
Low62 °F (Jun 24, 5:53 am)31% (Jul 3, 4:53 pm)29.71 "Hg (Jun 27, 3:53 pm)
Average80 °F62%29.89 "Hg
* Reported Jun 24 5:53 am — Jul 9 5:53 am, 41°56'55"N, 87°51'32"W. Weather by CustomWeather, © 2020

Note: Actual official high and low records may vary slightly from our data, if they occured in-between our weather recording intervals... More about our weather records

41°56'55"N, 87°51'32"W Weather History for the Previous 24 Hours

Scroll right to see more
 ConditionsComfort  
Time TempWeatherWind HumidityBarometerVisibility
5:53 am
Thu, Jul 9
76 °FScattered clouds.5 mph77%29.87 "Hg9 mi
4:53 am76 °FPassing clouds.6 mph77%29.86 "Hg10 mi
3:53 am77 °FPassing clouds.6 mph74%29.84 "Hg10 mi
2:53 am78 °FPassing clouds.7 mph69%29.85 "Hg10 mi
1:53 am79 °FPassing clouds.3 mph65%29.84 "Hg10 mi
12:53 am80 °FPassing clouds.6 mph62%29.84 "Hg10 mi
11:53 pm
Wed, Jul 8
81 °FPassing clouds.5 mph56%29.85 "Hg10 mi
10:53 pm82 °FPassing clouds.6 mph58%29.86 "Hg10 mi
9:53 pm83 °FPassing clouds.No wind53%29.87 "Hg10 mi
8:53 pm83 °FMostly cloudy.5 mph53%29.87 "Hg10 mi
7:53 pm84 °FBroken clouds.5 mph51%29.85 "Hg10 mi
6:53 pm85 °FBroken clouds.8 mph55%29.84 "Hg10 mi
5:53 pm86 °FBroken clouds.10 mph53%29.85 "Hg10 mi
4:53 pm89 °FScattered clouds.12 mph46%29.85 "Hg10 mi
3:53 pm90 °FScattered clouds.5 mph43%29.85 "Hg10 mi
2:53 pm87 °FBroken clouds.7 mph53%29.88 "Hg10 mi
2:33 pm85 °FBroken clouds.7 mph63%29.92 "Hg10 mi
2:06 pm85 °FThunderstorms. Broken clouds.7 mph61%29.94 "Hg10 mi
1:53 pm87 °FThundershowers. Broken clouds.8 mph48%29.90 "Hg10 mi
12:53 pm88 °FBroken clouds.8 mph57%29.92 "Hg10 mi
11:53 am91 °FPartly sunny.No wind45%29.92 "Hg10 mi
10:53 am87 °FPartly sunny.No wind53%29.92 "Hg10 mi
9:53 am84 °FPartly sunny.3 mph61%29.93 "Hg10 mi
8:53 am82 °FPartly sunny.No wind65%29.93 "Hg10 mi
7:53 am79 °FPartly sunny.5 mph72%29.93 "Hg10 mi
Weather by CustomWeather, © 2020

See weather overview